| time (UTC) | temp C | wind direction | speed KPH | gust KPH | rain 1hr cm | rain 24hr cm | rain mn cm | humidity % | barometer mb |
| 20260508041548 | 7 | 287 | 0.0 | 1.6 | 0.00 | 0.03 | 0.00 | 60 | 1008.3 |
| 20260508040034 | 8 | 285 | 0.0 | 3.2 | 0.00 | 0.03 | 0.00 | 58 | 1008.3 |
| 20260508034536 | 8 | 284 | 0.0 | 3.2 | 0.00 | 0.10 | 0.03 | 56 | 1008.2 |
| 20260508033037 | 8 | 302 | 1.6 | 4.8 | 0.00 | 0.10 | 0.03 | 55 | 1008.1 |
| 20260508031530 | 8 | 293 | 0.0 | 4.8 | 0.00 | 0.10 | 0.03 | 54 | 1008.1 |
| 20260508030039 | 9 | 305 | 1.6 | 6.4 | 0.00 | 0.10 | 0.03 | 54 | 1008.0 |
| 20260508024531 | 8 | 306 | 0.0 | 1.6 | 0.00 | 0.13 | 0.03 | 55 | 1008.1 |
| 20260508023039 | 9 | 306 | 0.0 | 3.2 | 0.00 | 0.13 | 0.03 | 52 | 1007.9 |
| 20260508021533 | 9 | 291 | 1.6 | 6.4 | 0.00 | 0.13 | 0.03 | 52 | 1007.9 |
| 20260508020028 | 10 | 306 | 0.0 | 3.2 | 0.00 | 0.13 | 0.03 | 51 | 1008.0 |
| 20260508014533 | 10 | 309 | 0.0 | 3.2 | 0.00 | 0.13 | 0.03 | 50 | 1007.8 |
| 20260508013027 | 10 | 303 | 0.0 | 1.6 | 0.00 | 0.13 | 0.03 | 49 | 1007.6 |
| 20260508011526 | 10 | 303 | 0.0 | 1.6 | 0.00 | 0.13 | 0.03 | 48 | 1007.3 |
| 20260508010037 | 11 | 303 | 0.0 | 4.8 | 0.00 | 0.13 | 0.03 | 46 | 1007.2 |
| 20260508004525 | 11 | 305 | 3.2 | 6.4 | 0.00 | 0.13 | 0.03 | 45 | 1006.9 |
| 20260508003024 | 11 | 300 | 0.0 | 9.7 | 0.00 | 0.13 | 0.03 | 43 | 1006.7 |
| 20260508001531 | 12 | 293 | 3.2 | 8.0 | 0.00 | 0.13 | 0.03 | 41 | 1006.6 |
| 20260508000025 | 12 | 304 | 0.0 | 6.4 | 0.00 | 0.13 | 0.03 | 41 | 1006.5 |
| 20260507234526 | 13 | 314 | 1.6 | 14.5 | 0.00 | 0.18 | 0.03 | 38 | 1006.3 |
| 20260507233023 | 13 | 302 | 1.6 | 14.5 | 0.00 | 0.18 | 0.03 | 37 | 1006.3 |
| 20260507231522 | 14 | 298 | 4.8 | 16.1 | 0.00 | 0.18 | 0.03 | 34 | 1006.1 |
| 20260507230020 | 15 | 319 | 6.4 | 19.3 | 0.00 | 0.18 | 0.03 | 33 | 1006.0 |
| 20260507224528 | 15 | 318 | 3.2 | 17.7 | 0.00 | 0.33 | 0.03 | 35 | 1005.9 |
| 20260507223021 | 15 | 313 | 1.6 | 16.1 | 0.00 | 0.33 | 0.03 | 35 | 1005.6 |
| 20260507221524 | 15 | 316 | 3.2 | 14.5 | 0.00 | 0.33 | 0.03 | 33 | 1005.6 |
| 20260507220021 | 15 | 296 | 1.6 | 8.0 | 0.00 | 0.33 | 0.03 | 33 | 1005.5 |
| 20260507214521 | 15 | 331 | 6.4 | 17.7 | 0.00 | 0.38 | 0.03 | 32 | 1005.4 |
| 20260507213028 | 15 | 298 | 4.8 | 17.7 | 0.00 | 0.38 | 0.03 | 32 | 1005.2 |
| 20260507211516 | 15 | 294 | 6.4 | 22.5 | 0.00 | 0.38 | 0.03 | 32 | 1005.3 |
| 20260507210038 | 16 | 300 | 9.7 | 14.5 | 0.00 | 0.38 | 0.03 | 31 | 1005.2 |
| 20260507204514 | 16 | 298 | 8.0 | 20.9 | 0.00 | 0.46 | 0.03 | 33 | 1005.2 |
| 20260507203020 | 15 | 323 | 6.4 | 24.1 | 0.00 | 0.46 | 0.03 | 33 | 1005.2 |
| 20260507201517 | 16 | 332 | 9.7 | 17.7 | 0.00 | 0.46 | 0.03 | 35 | 1005.1 |
| 20260507200022 | 16 | 273 | 6.4 | 24.1 | 0.00 | 0.46 | 0.03 | 34 | 1005.1 |
| 20260507194512 | 16 | 278 | 1.6 | 19.3 | 0.00 | 0.51 | 0.03 | 35 | 1005.2 |
| 20260507193020 | 16 | 305 | 6.4 | 14.5 | 0.00 | 0.51 | 0.03 | 34 | 1005.3 |
| 20260507191519 | 16 | 278 | 4.8 | 11.3 | 0.00 | 0.51 | 0.03 | 35 | 1005.6 |
| 20260507190005 | 15 | 296 | 6.4 | 19.3 | 0.00 | 0.51 | 0.03 | 33 | 1005.7 |
| 20260507184504 | 15 | 307 | 9.7 | 22.5 | 0.00 | 0.53 | 0.03 | 32 | 1006.0 |
| 20260507183004 | 15 | 312 | 4.8 | 19.3 | 0.00 | 0.53 | 0.03 | 34 | 1006.1 |
| 20260507181502 | 15 | 329 | 8.0 | 19.3 | 0.00 | 0.53 | 0.03 | 33 | 1006.3 |
| 20260507180001 | 15 | 7 | 6.4 | 20.9 | 0.00 | 0.53 | 0.03 | 35 | 1006.2 |
| 20260507174502 | 15 | 296 | 4.8 | 14.5 | 0.00 | 0.53 | 0.03 | 34 | 1006.2 |
| 20260507173134 | 15 | 305 | 4.8 | 22.5 | 0.00 | 0.53 | 0.03 | 36 | 1006.0 |
| 20260507171602 | 15 | 315 | 4.8 | 19.3 | 0.00 | 0.53 | 0.03 | 38 | 1006.2 |
| 20260507170056 | 15 | 298 | 4.8 | 14.5 | 0.00 | 0.53 | 0.03 | 37 | 1006.3 |
| 20260507164601 | 14 | 263 | 4.8 | 19.3 | 0.00 | 0.53 | 0.03 | 45 | 1006.6 |
| 20260507163052 | 14 | 336 | 6.4 | 17.7 | 0.00 | 0.53 | 0.03 | 41 | 1006.7 |
| 20260507161605 | 14 | 272 | 3.2 | 17.7 | 0.00 | 0.53 | 0.03 | 47 | 1006.9 |
| 20260507154546 | 13 | 285 | 6.4 | 17.7 | 0.00 | 0.53 | 0.03 | 53 | 1007.0 |
| 20260507153044 | 13 | 313 | 4.8 | 14.5 | 0.00 | 0.53 | 0.03 | 60 | 1007.1 |
| 20260507151543 | 13 | 314 | 11.3 | 22.5 | 0.00 | 0.53 | 0.03 | 60 | 1007.2 |
| 20260507150041 | 13 | 288 | 3.2 | 12.9 | 0.00 | 0.53 | 0.03 | 62 | 1007.4 |
| 20260507144550 | 12 | 286 | 4.8 | 11.3 | 0.00 | 0.53 | 0.03 | 64 | 1007.4 |
| 20260507143039 | 13 | 311 | 1.6 | 9.7 | 0.00 | 0.53 | 0.03 | 64 | 1007.4 |
| 20260507141537 | 12 | 281 | 4.8 | 12.9 | 0.00 | 0.53 | 0.03 | 64 | 1007.4 |
| 20260507140037 | 12 | 319 | 3.2 | 9.7 | 0.00 | 0.53 | 0.03 | 62 | 1007.5 |
| 20260507134534 | 12 | 329 | 1.6 | 8.0 | 0.00 | 0.53 | 0.03 | 69 | 1007.3 |
| 20260507133033 | 12 | 306 | 1.6 | 6.4 | 0.00 | 0.53 | 0.03 | 69 | 1007.5 |
| 20260507131533 | 11 | 311 | 3.2 | 11.3 | 0.00 | 0.53 | 0.03 | 70 | 1007.7 |
| 20260507130039 | 11 | 277 | 1.6 | 6.4 | 0.00 | 0.53 | 0.03 | 74 | 1007.8 |
| 20260507124530 | 11 | 316 | 1.6 | 9.7 | 0.00 | 0.53 | 0.03 | 79 | 1007.9 |
| 20260507123038 | 10 | 281 | 0.0 | 11.3 | 0.00 | 0.53 | 0.03 | 80 | 1007.9 |
| 20260507121527 | 10 | 310 | 8.0 | 16.1 | 0.00 | 0.53 | 0.03 | 80 | 1008.0 |
| 20260507120025 | 9 | 300 | 1.6 | 6.4 | 0.00 | 0.53 | 0.03 | 83 | 1008.0 |
| 20260507114524 | 8 | 295 | 0.0 | 8.0 | 0.00 | 0.53 | 0.03 | 86 | 1007.9 |
| 20260507113027 | 8 | 288 | 0.0 | 6.4 | 0.00 | 0.53 | 0.03 | 88 | 1007.9 |
| 20260507111521 | 8 | 291 | 0.0 | 3.2 | 0.00 | 0.53 | 0.03 | 89 | 1007.6 |
| 20260507110023 | 8 | 291 | 0.0 | 3.2 | 0.00 | 0.53 | 0.03 | 88 | 1007.7 |
| 20260507104517 | 8 | 290 | 1.6 | 8.0 | 0.00 | 0.53 | 0.03 | 89 | 1007.5 |
| 20260507103017 | 8 | 280 | 1.6 | 6.4 | 0.00 | 0.53 | 0.03 | 89 | 1007.2 |
| 20260507101517 | 8 | 293 | 0.0 | 3.2 | 0.00 | 0.53 | 0.03 | 89 | 1007.0 |
| 20260507100014 | 8 | 323 | 1.6 | 8.0 | 0.00 | 0.53 | 0.03 | 90 | 1007.0 |
| 20260507094513 | 8 | 306 | 1.6 | 8.0 | 0.00 | 0.53 | 0.03 | 89 | 1007.0 |
| 20260507093012 | 8 | 289 | 1.6 | 9.7 | 0.00 | 0.53 | 0.03 | 90 | 1007.0 |
| 20260507091511 | 8 | 301 | 1.6 | 11.3 | 0.00 | 0.53 | 0.03 | 90 | 1007.2 |
| 20260507090012 | 8 | 311 | 1.6 | 12.9 | 0.00 | 0.53 | 0.03 | 92 | 1007.4 |
| 20260507084512 | 8 | 291 | 0.0 | 4.8 | 0.00 | 0.53 | 0.03 | 93 | 1007.0 |
| 20260507083006 | 8 | 302 | 0.0 | 8.0 | 0.00 | 0.53 | 0.03 | 93 | 1006.9 |
| 20260507081503 | 8 | 307 | 1.6 | 6.4 | 0.00 | 0.53 | 0.03 | 92 | 1006.8 |
| 20260507080002 | 8 | 298 | 0.0 | 8.0 | 0.00 | 0.53 | 0.03 | 91 | 1006.6 |
| 20260507074600 | 9 | 310 | 3.2 | 9.7 | 0.00 | 0.53 | 0.03 | 89 | 1006.9 |
| 20260507073056 | 10 | 284 | 3.2 | 11.3 | 0.00 | 0.53 | 0.03 | 89 | 1007.0 |
| 20260507071553 | 10 | 301 | 4.8 | 14.5 | 0.00 | 0.53 | 0.03 | 91 | 1006.3 |
| 20260507070054 | 10 | 288 | 1.6 | 6.4 | 0.00 | 0.53 | 0.03 | 93 | 1006.3 |
| 20260507064606 | 10 | 296 | 0.0 | 4.8 | 0.00 | 0.53 | 0.03 | 92 | 1005.8 |
| 20260507063053 | 10 | 293 | 3.2 | 6.4 | 0.00 | 0.53 | 0.03 | 92 | 1006.2 |
| 20260507061548 | 10 | 298 | 1.6 | 6.4 | 0.00 | 0.53 | 0.03 | 92 | 1006.1 |
| 20260507060049 | 10 | 294 | 3.2 | 9.7 | 0.03 | 0.53 | 0.03 | 91 | 1006.2 |
| 20260507054546 | 10 | 319 | 4.8 | 12.9 | 0.03 | 0.53 | 0.03 | 91 | 1006.5 |
| 20260507053044 | 10 | 309 | 4.8 | 11.3 | 0.03 | 0.53 | 0.03 | 93 | 1006.7 |
| 20260507051541 | 10 | 300 | 1.6 | 16.1 | 0.03 | 0.53 | 0.03 | 94 | 1006.6 |
| 20260507050040 | 11 | 336 | 3.2 | 12.9 | 0.00 | 0.51 | 0.00 | 94 | 1006.7 |
| 20260507044534 | 11 | 313 | 1.6 | 11.3 | 0.08 | 0.51 | 0.00 | 95 | 1006.3 |
| 20260507043029 | 12 | 287 | 3.2 | 14.5 | 0.08 | 0.51 | 0.00 | 96 | 1006.2 |